DW8751 Weather Reports


time (UTC)temp
C
wind
direction
speed
KPH
gust
KPH
rain 1hr
cm
rain 24hr
cm
rain mn
cm
humidity
%
barometer
mb
20260506011105 6 123 1.6 4.8 0.00 0.00 0.00 85 1015.9
20260506010605 6 122 3.2 8.0 0.00 0.00 0.00 85 1015.9
20260506010105 6 120 3.2 8.0 0.00 0.00 0.00 85 1015.9
20260506005106 6 127 1.6 4.8 0.00 0.00 0.00 84 1015.9
20260506004105 6 126 1.6 9.7 0.00 0.00 0.00 84 1015.9
20260506003606 6 119 9.7 14.5 0.00 0.00 0.00 84 1015.9
20260506003106 6 135 9.7 19.3 0.00 0.00 0.00 85 1015.9
20260506002606 6 142 11.3 14.5 0.00 0.00 0.00 85 1015.9
20260506002105 7 141 8.0 14.5 0.00 0.00 0.00 85 1015.9
20260506001605 7 136 8.0 12.9 0.00 0.00 0.00 85 1015.9
20260506001105 7 139 9.7 14.5 0.00 0.00 0.00 85 1015.9
20260506000605 7 123 4.8 11.3 0.00 0.00 0.00 85 1015.9
20260506000106 7 124 3.2 8.0 0.00 0.00 0.00 85 1015.9
20260505235605 7 121 3.2 8.0 0.00 0.00 0.00 85 1015.9
20260505234605 7 118 4.8 11.3 0.00 0.00 0.00 85 1015.9
20260505234105 7 105 3.2 11.3 0.00 0.00 0.00 85 1015.9
20260505233105 7 104 8.0 16.1 0.00 0.00 0.00 85 1015.9
20260505232606 7 100 4.8 12.9 0.00 0.00 0.00 86 1015.9
20260505232105 7 118 6.4 14.5 0.00 0.00 0.00 86 1015.9
20260505231605 7 107 3.2 4.8 0.00 0.00 0.00 86 1015.9
20260505231105 7 105 8.0 12.9 0.00 0.00 0.00 86 1015.9
20260505230605 7 351 0.0 0.0 0.00 0.00 0.00 86 1015.9
20260505230105 7 349 0.0 0.0 0.00 0.00 0.00 86 1015.9
20260505225605 7 350 0.0 0.0 0.00 0.00 0.00 86 1015.9
20260505225105 7 352 0.0 0.0 0.00 0.00 0.00 86 1015.9
20260505224606 7 351 0.0 0.0 0.00 0.00 0.00 86 1015.9
20260505224105 7 352 0.0 0.0 0.00 0.00 0.00 85 1015.9
20260505223106 7 351 0.0 0.0 0.00 0.00 0.00 85 1015.9
20260505222605 7 350 0.0 0.0 0.00 0.00 0.00 85 1015.9
20260505222105 7 349 0.0 0.0 0.00 0.00 0.00 85 1015.9
20260505221605 7 350 0.0 0.0 0.00 0.00 0.00 85 1015.9
20260505221105 7 350 0.0 0.0 0.00 0.00 0.00 85 1015.9
20260505220605 7 351 0.0 4.8 0.00 0.00 0.00 84 1015.9
20260505220105 7 349 1.6 4.8 0.00 0.00 0.00 84 1015.9
20260505215604 7 349 3.2 4.8 0.00 0.00 0.00 84 1015.9
20260505215105 8 352 1.6 4.8 0.00 0.00 0.00 84 1015.9
20260505214605 8 349 3.2 4.8 0.00 0.00 0.00 84 1015.9
20260505214105 8 351 1.6 4.8 0.00 0.00 0.00 84 1015.9
20260505213105 8 351 3.2 4.8 0.00 0.00 0.00 83 1015.9
20260505212605 8 348 3.2 4.8 0.00 0.00 0.00 83 1015.9
20260505212105 8 350 3.2 4.8 0.00 0.00 0.00 83 1015.9
20260505211604 8 352 1.6 4.8 0.00 0.00 0.00 83 1015.9
20260505211105 8 351 3.2 4.8 0.00 0.00 0.00 82 1015.9
20260505210605 8 355 1.6 4.8 0.00 0.00 0.00 82 1015.9
20260505205605 8 351 3.2 4.8 0.00 0.00 0.00 81 1015.9
20260505205105 8 350 0.0 4.8 0.00 0.00 0.00 81 1015.9
20260505204605 8 349 0.0 4.8 0.00 0.00 0.00 81 1015.9
20260505204105 8 352 3.2 4.8 0.00 0.00 0.00 80 1015.9
20260505202605 8 352 1.6 4.8 0.00 0.00 0.00 80 1015.9
20260505202105 8 352 1.6 4.8 0.00 0.00 0.00 79 1015.9
20260505201106 8 353 3.2 4.8 0.00 0.00 0.00 78 1015.9
20260505200605 8 353 3.2 4.8 0.00 0.00 0.00 78 1015.9
20260505200105 8 353 3.2 4.8 0.00 0.00 0.00 77 1015.9
20260505195605 8 352 3.2 4.8 0.00 0.00 0.00 77 1015.9
20260505195106 8 353 3.2 4.8 0.00 0.00 0.00 77 1015.9
20260505194605 9 353 3.2 4.8 0.00 0.00 0.00 76 1015.9
20260505194105 9 353 4.8 8.0 0.00 0.00 0.00 76 1015.9
20260505193605 9 352 8.0 9.7 0.00 0.00 0.00 76 1015.9
20260505190105 10 2 8.0 9.7 0.00 0.00 0.00 75 1015.9
20260505185605 10 359 4.8 9.7 0.00 0.00 0.00 75 1015.9
20260505185105 10 7 4.8 9.7 0.00 0.00 0.00 73 1015.9
20260505184604 10 0 8.0 12.9 0.00 0.00 0.00 73 1015.9
20260505184105 10 347 8.0 11.3 0.00 0.00 0.00 73 1015.9
20260505183605 10 8 4.8 12.9 0.00 0.00 0.00 72 1015.9
20260505183105 10 22 8.0 9.7 0.00 0.00 0.00 72 1015.9
20260505182605 10 357 6.4 14.5 0.00 0.00 0.00 73 1015.9
20260505182105 10 1 8.0 14.5 0.00 0.00 0.00 72 1015.9
20260505181605 10 335 9.7 16.1 0.00 0.00 0.00 72 1015.9
20260505181105 10 5 8.0 11.3 0.00 0.00 0.00 72 1015.9
20260505180605 10 346 8.0 12.9 0.00 0.00 0.00 71 1015.9
20260505180105 10 334 11.3 14.5 0.00 0.00 0.00 71 1015.9
20260505175606 10 2 8.0 14.5 0.00 0.00 0.00 70 1015.9
20260505175105 10 330 6.4 11.3 0.00 0.00 0.00 71 1015.9
20260505174605 10 4 9.7 14.5 0.00 0.00 0.00 70 1015.9
20260505173605 10 338 11.3 16.1 0.00 0.00 0.00 68 1015.9
20260505173105 11 324 9.7 14.5 0.00 0.00 0.00 70 1015.9
20260505172605 11 357 9.7 12.9 0.00 0.00 0.00 71 1015.9
20260505172105 10 313 11.3 16.1 0.00 0.00 0.00 73 1015.9
20260505170605 10 5 12.9 19.3 0.00 0.00 0.00 70 1015.9
20260505165605 10 339 8.0 12.9 0.00 0.00 0.00 68 1015.9
20260505165105 10 1 9.7 19.3 0.00 0.00 0.00 66 1015.9
20260505164105 10 4 8.0 16.1 0.00 0.00 0.00 69 1015.9
20260505163605 10 354 9.7 16.1 0.00 0.00 0.00 71 1015.9
20260505163105 10 347 11.3 19.3 0.00 0.00 0.00 72 1015.9
20260505162605 10 9 9.7 16.1 0.00 0.00 0.00 71 1015.9
20260505162105 10 332 9.7 16.1 0.00 0.00 0.00 72 1015.9
20260505161605 11 345 4.8 14.5 0.00 0.00 0.00 73 1015.9
20260505160605 10 309 9.7 16.1 0.00 0.00 0.00 72 1015.9
20260505160105 10 18 9.7 12.9 0.00 0.00 0.00 72 1015.9
20260505153104 10 8 6.4 12.9 0.00 0.00 0.00 71 1015.9
20260505152605 10 318 8.0 14.5 0.00 0.00 0.00 73 1015.9
20260505152105 10 353 8.0 16.1 0.00 0.00 0.00 73 1015.9
20260505151605 10 342 8.0 16.1 0.00 0.00 0.00 73 1015.9
20260505151105 10 342 11.3 14.5 0.00 0.00 0.00 70 1015.9
20260505150105 10 13 8.0 14.5 0.00 0.00 0.00 72 1015.9
20260505140605 10 344 8.0 14.5 0.00 0.00 0.00 79 1015.9
20260505140105 10 346 11.3 16.1 0.00 0.00 0.00 79 1015.9
20260505130105 10 353 8.0 16.1 0.00 0.00 0.00 75 1015.9
20260505124605 10 333 11.3 22.5 0.00 0.00 0.00 75 1015.9
20260505123605 10 318 8.0 19.3 0.00 0.00 0.00 77 1015.9
20260505123105 10 358 11.3 19.3 0.00 0.00 0.00 77 1015.9
20260505122605 10 351 9.7 19.3 0.00 0.00 0.00 78 1015.9
20260505122105 10 0 12.9 20.9 0.00 0.00 0.00 80 1015.9
20260505121605 10 339 9.7 19.3 0.00 0.00 0.00 80 1015.9
20260505121105 10 359 11.3 24.1 0.00 0.00 0.00 80 1015.9
20260505120606 10 348 14.5 19.3 0.00 0.00 0.00 79 1015.9
20260505120105 10 352 11.3 20.9 0.00 0.00 0.00 77 1015.9
20260505115605 10 324 14.5 22.5 0.00 0.00 0.00 77 1015.9
20260505115105 10 335 12.9 20.9 0.00 0.00 0.00 79 1015.9
20260505114605 10 331 14.5 22.5 0.00 0.00 0.00 78 1015.9
20260505114105 10 312 11.3 19.3 0.00 0.00 0.00 78 1015.9
20260505113605 10 340 11.3 19.3 0.00 0.00 0.00 77 1015.9
20260505113105 11 357 9.7 19.3 0.00 0.00 0.00 78 1015.9
20260505112605 11 330 9.7 19.3 0.00 0.00 0.00 77 1015.9
20260505111605 10 19 6.4 12.9 0.00 0.00 0.00 79 1015.9
20260505111105 10 357 9.7 19.3 0.00 0.00 0.00 79 1015.9
20260505110605 10 328 9.7 14.5 0.00 0.00 0.00 79 1015.9
20260505110106 10 21 4.8 19.3 0.00 0.00 0.00 80 1015.9
20260505102105 9 3 9.7 19.3 0.00 0.00 0.00 87 1015.9
20260505101605 9 338 11.3 19.3 0.00 0.00 0.00 87 1015.9
20260505101106 9 0 11.3 20.9 0.00 0.00 0.00 86 1015.9
20260505100606 9 335 11.3 20.9 0.00 0.00 0.00 86 1015.9
20260505100105 9 353 11.3 19.3 0.00 0.00 0.00 85 1015.9
20260505095605 9 343 14.5 20.9 0.00 0.00 0.00 85 1015.9
20260505095105 9 334 12.9 19.3 0.00 0.00 0.00 84 1015.9
20260505093605 9 332 12.9 29.0 0.00 0.00 0.00 85 1015.9
20260505093105 9 346 9.7 22.5 0.00 0.00 0.00 85 1015.9
20260505092105 10 329 14.5 20.9 0.00 0.00 0.00 86 1015.9
20260505091605 10 335 11.3 19.3 0.00 0.00 0.00 85 1015.9
20260505091105 10 346 9.7 19.3 0.00 0.00 0.00 85 1015.9
20260505090605 10 316 11.3 19.3 0.00 0.00 0.00 85 1015.9
20260505090105 10 314 9.7 19.3 0.00 0.00 0.00 86 1015.9
20260505085605 10 336 8.0 19.3 0.00 0.00 0.00 86 1015.9
20260505085105 10 310 8.0 11.3 0.00 0.00 0.00 87 1015.9
20260505084105 10 308 4.8 8.0 0.00 0.00 0.00 88 1015.9
20260505083605 9 300 8.0 11.3 0.00 0.00 0.00 89 1015.9
20260505083105 9 334 4.8 9.7 0.00 0.00 0.00 89 1015.9
20260505082605 9 326 4.8 8.0 0.00 0.00 0.00 89 1015.9
20260505082104 9 331 4.8 9.7 0.00 0.00 0.00 89 1015.9
20260505081605 9 329 8.0 11.3 0.00 0.00 0.00 90 1015.9
20260505081105 9 321 4.8 9.7 0.00 0.00 0.00 89 1015.9
20260505080606 9 316 4.8 11.3 0.00 0.00 0.00 90 1015.9
20260505080105 8 323 8.0 11.3 0.00 0.00 0.00 90 1015.9
20260505075605 8 324 3.2 11.3 0.00 0.00 0.00 90 1015.9
20260505074605 8 335 6.4 12.9 0.00 0.00 0.00 90 1015.9
20260505074105 8 334 4.8 9.7 0.00 0.00 0.00 91 1015.9
20260505073604 8 343 6.4 9.7 0.00 0.00 0.00 90 1015.9
20260505072605 8 324 3.2 8.0 0.00 0.00 0.00 91 1015.9
20260505072104 8 321 4.8 8.0 0.00 0.00 0.00 91 1015.9
20260505071605 8 323 4.8 9.7 0.00 0.00 0.00 91 1015.9
20260505070605 8 327 6.4 9.7 0.00 0.00 0.00 90 1015.9
20260505070105 8 337 4.8 11.3 0.00 0.00 0.00 90 1015.9
20260505065605 8 340 6.4 12.9 0.00 0.00 0.00 90 1015.9
20260505064604 8 356 4.8 8.0 0.00 0.00 0.00 90 1015.9
20260505064105 8 326 3.2 4.8 0.00 0.00 0.00 90 1015.9
20260505063605 8 336 3.2 8.0 0.00 0.00 0.00 90 1015.9
20260505063105 8 348 3.2 4.8 0.00 0.00 0.00 90 1015.9
20260505062105 8 332 4.8 8.0 0.00 0.00 0.00 89 1015.9
20260505061105 8 334 4.8 8.0 0.00 0.00 0.00 90 1015.9
20260505060605 8 328 4.8 9.7 0.00 0.00 0.00 90 1015.9
20260505060105 8 313 4.8 11.3 0.00 0.00 0.00 89 1015.9
20260505055605 7 334 3.2 8.0 0.00 0.00 0.00 89 1015.9
20260505055105 7 343 4.8 8.0 0.00 0.00 0.00 89 1015.9
20260505054105 7 319 4.8 8.0 0.00 0.00 0.00 89 1015.9
20260505053105 7 328 3.2 4.8 0.00 0.00 0.00 89 1015.9
20260505052605 7 322 3.2 8.0 0.00 0.00 0.00 89 1015.9
20260505052105 7 321 4.8 8.0 0.00 0.00 0.00 89 1015.9
20260505051605 7 309 3.2 8.0 0.00 0.00 0.00 89 1015.9
20260505051106 7 321 3.2 9.7 0.00 0.00 0.00 89 1015.9
20260505050606 7 321 4.8 11.3 0.00 0.00 0.00 89 1015.9
20260505050105 7 319 4.8 8.0 0.00 0.00 0.00 89 1015.9
20260505041105 7 327 4.8 8.0 0.00 0.00 0.00 92 1015.9
20260505040606 7 318 6.4 9.7 0.00 0.00 0.00 92 1015.9
20260505035605 7 306 4.8 9.7 0.00 0.00 0.00 92 1015.9
20260505035105 7 313 4.8 9.7 0.00 0.00 0.00 92 1015.9
20260505034605 7 321 3.2 8.0 0.00 0.00 0.00 92 1015.9
20260505034105 7 323 3.2 9.7 0.00 0.00 0.00 92 1015.9
20260505033605 7 317 4.8 8.0 0.00 0.00 0.00 92 1015.9
20260505033105 7 322 1.6 4.8 0.00 0.00 0.00 92 1015.9
20260505032605 7 328 3.2 8.0 0.00 0.00 0.00 92 1015.9
20260505031605 7 336 4.8 9.7 0.00 0.00 0.00 92 1015.9
20260505031105 7 326 1.6 4.8 0.00 0.00 0.00 92 1015.9
20260505030605 7 327 3.2 4.8 0.00 0.00 0.00 93 1015.9
20260505030105 7 315 4.8 8.0 0.00 0.00 0.00 93 1015.9
20260505025605 7 326 4.8 9.7 0.00 0.00 0.00 93 1015.9
20260505025105 7 301 6.4 8.0 0.00 0.00 0.00 93 1015.9
20260505024604 7 301 4.8 8.0 0.00 0.00 0.00 92 1015.9
20260505024105 7 301 3.2 4.8 0.00 0.00 0.00 92 1015.9
20260505023605 7 310 3.2 8.0 0.00 0.00 0.00 92 1015.9
20260505023105 7 303 3.2 4.8 0.00 0.00 0.00 92 1015.9
20260505022105 7 282 3.2 8.0 0.00 0.00 0.00 93 1015.9
20260505021605 7 279 4.8 8.0 0.00 0.00 0.00 93 1015.9
20260505020605 7 288 4.8 9.7 0.00 0.00 0.00 92 1015.9
20260505015605 7 303 4.8 9.7 0.00 0.00 0.00 92 1015.9
20260505015105 7 299 6.4 9.7 0.00 0.00 0.00 92 1015.9
20260505014605 7 289 8.0 9.7 0.00 0.00 0.00 92 1015.9
20260505014106 7 314 8.0 11.3 0.00 0.00 0.00 92 1015.9
20260505013605 7 283 8.0 11.3 0.00 0.00 0.00 91 1015.9
20260505013105 7 311 8.0 12.9 0.00 0.00 0.00 91 1015.9
20260505012605 7 305 4.8 9.7 0.00 0.00 0.00 91 1015.9
20260505012105 7 312 4.8 11.3 0.00 0.00 0.00 91 1015.9
20260505011605 8 302 8.0 12.9 0.00 0.00 0.00 90 1015.9